Temp
58 56 55 53 52 50 50 50 51 50 48 48 45 46 42 40 39 39 38 38 37 35
58 57 55 53 51 51 51 51 50 49 45 47 44 44 42 39 38 37 35 35 35 34
58 58 56 54 52 53 50 49 48 47 46 45 42 43 40 38 37 37 34 34 34 33
59 58 57 56 55 53 51 50 48 48 45 44 42 41 39 37 37 37 35 34 33 34
58 57 55 55 53 51 49 49 48 47 45 43 43 40 40 38 38 37 34 33 33 33
55 54 54 53 51 49 48 47 47 46 44 43 41 40 39 39 37 36 35 33 33 33
53 53 52 50 48 48 47 46 45 45 44 42 41 40 39 38 36 35 34 34 33 32
49 51 49 47 45 44 45 46 45 42 41 41 41 40 39 38 35 34 33 33 33 32
47 46 45 44 43 42 41 41 40 39 40 39 42 42 41 38 35 34 34 34 32 32
42 40 40 40 40 39 40 39 38 37 37 37 38 41 41 38 35 35 34 33 33 32
40 40 38 38 38 38 36 37 36 35 36 36 37 41 41 38 35 34 33 33 33 32
39 37 37 37 36 35 35 35 35 35 35 35 35 41 40 38 34 33 33 33 32 32
38 37 37 37 35 33 35 34 34 34 34 34 35 40 40 39 34 33 32 32 32 31
36 37 37 35 32 34 33 33 33 33 32 33 33 36 40 40 34 34 30 30 29 29
MSLP
1016.09 1016.91 1017.68 1018.51 1019.18 1019.85 1020.32 1020.63 1021.08 1021.71 1022.31 1022.74 1023.16 1023.50 1023.67 1024.39 1024.90 1025.20 1025.62 1025.99 1026.38 1026.84
1015.53 1016.24 1016.95 1017.83 1018.62 1019.24 1019.69 1020.07 1020.58 1021.26 1022.20 1022.68 1022.70 1023.50 1023.70 1024.25 1024.79 1025.31 1025.71 1026.06 1026.38 1026.81
1014.68 1015.41 1016.26 1017.20 1017.88 1018.62 1019.33 1019.91 1020.52 1021.16 1021.79 1022.37 1022.61 1023.39 1023.68 1024.28 1024.83 1025.19 1025.78 1026.14 1026.62 1027.11
1014.04 1014.90 1015.41 1016.03 1016.85 1017.75 1018.52 1019.28 1020.05 1020.70 1021.45 1022.08 1022.41 1023.21 1023.64 1024.23 1024.72 1025.21 1025.77 1026.15 1026.59 1026.99
1013.42 1014.24 1014.95 1015.62 1016.36 1017.03 1017.96 1018.74 1019.44 1020.29 1021.13 1021.81 1022.22 1022.85 1023.32 1024.05 1024.53 1025.10 1025.58 1025.86 1026.44 1026.77
1013.20 1013.91 1014.42 1015.09 1015.90 1016.77 1017.65 1018.47 1019.04 1019.84 1020.76 1021.36 1021.91 1022.53 1023.08 1023.61 1024.16 1024.68 1024.97 1025.48 1026.05 1026.54
1012.85 1013.53 1014.29 1014.83 1015.74 1016.56 1017.37 1018.24 1018.90 1019.50 1020.22 1021.03 1021.58 1022.11 1022.85 1023.38 1024.05 1024.69 1025.08 1025.53 1026.04 1026.25
1012.76 1013.35 1014.13 1014.73 1015.68 1016.60 1017.24 1018.00 1018.68 1019.44 1020.16 1020.78 1021.37 1021.73 1022.32 1023.03 1023.83 1024.42 1024.93 1025.14 1025.50 1026.08
1012.90 1013.41 1013.96 1014.67 1015.46 1016.24 1017.01 1018.03 1018.56 1019.18 1019.86 1020.38 1020.82 1021.42 1021.99 1022.61 1023.48 1024.08 1024.44 1024.77 1025.21 1025.56
1013.26 1013.73 1014.46 1014.88 1015.73 1016.33 1016.98 1017.91 1018.67 1019.04 1019.68 1020.33 1020.71 1021.09 1021.53 1022.37 1023.12 1023.63 1023.89 1024.40 1024.83 1025.49
1013.25 1013.91 1014.74 1015.29 1015.89 1016.49 1017.21 1017.86 1018.63 1019.02 1019.51 1019.95 1020.47 1020.87 1021.41 1022.13 1022.77 1023.25 1023.51 1023.83 1024.13 1024.35
1013.42 1014.04 1014.69 1015.19 1015.74 1016.45 1017.16 1017.93 1018.33 1018.76 1019.49 1019.69 1020.26 1020.49 1020.81 1021.45 1022.24 1022.64 1022.95 1023.32 1023.93 1024.20
1013.34 1014.04 1014.54 1015.01 1015.57 1016.12 1016.75 1017.67 1018.35 1018.82 1019.07 1019.41 1019.92 1020.27 1020.56 1021.09 1021.83 1022.41 1023.00 1023.22 1023.58 1023.86
1013.34 1013.83 1014.41 1014.73 1015.39 1016.12 1016.91 1017.61 1018.28 1018.69 1019.12 1019.62 1019.65 1019.97 1020.38 1020.95 1021.42 1021.94 1022.76 1023.09 1023.21 1023.50
Wind_Speed
14 10 9 10 8 8 8 7 8 7 7 6 7 5 6 4 4 6 5 7 4 3
13 13 12 11 8 8 7 6 9 9 7 7 7 6 6 5 6 6 5 6 6 4
14 14 11 11 13 12 9 8 10 10 8 8 7 7 7 5 5 6 4 4 6 4
14 13 13 13 12 11 10 11 12 12 10 10 9 7 7 6 7 7 6 5 6 6
13 13 13 11 11 11 11 10 11 11 10 9 9 9 9 9 7 8 8 8 7 7
12 12 13 12 11 10 10 11 10 12 12 11 10 9 7 8 8 8 7 8 8 7
12 12 10 10 10 10 10 11 11 11 11 10 10 9 8 8 7 6 6 6 6 7
8 9 9 10 9 8 10 9 9 9 7 8 9 8 10 8 7 7 6 6 6 5
9 9 10 9 10 10 8 8 9 8 9 10 7 12 13 10 8 7 8 8 5 6
6 7 6 7 8 9 10 8 8 7 8 8 6 15 16 14 7 8 8 6 6 6
7 7 7 8 8 6 5 8 7 7 7 7 6 15 15 15 7 6 6 7 8 8
7 7 8 9 8 5 6 5 6 5 7 8 7 15 16 14 7 7 8 6 5 6
7 7 9 8 8 5 5 5 5 6 7 7 8 13 15 13 5 6 4 4 5 11
7 8 8 7 4 6 5 6 5 6 5 6 7 9 14 15 6 5 3 3 3 3
Wind_Direction
185 184 185 183 178 185 189 188 171 175 174 180 164 168 150 140 150 152 149 152 146 129
185 183 186 178 171 180 182 171 170 170 168 179 152 170 150 150 149 144 146 149 138 132
185 184 177 174 181 182 175 162 163 168 177 168 152 170 152 148 148 141 147 140 141 130
184 185 180 181 180 180 166 170 175 176 169 173 163 169 153 155 153 152 149 145 158 163
175 178 180 181 173 161 169 170 171 166 175 173 171 167 163 166 166 164 168 171 163 176
176 179 180 170 162 160 160 167 165 166 178 181 173 168 168 168 168 179 177 167 176 183
174 176 170 154 154 160 164 164 168 177 180 172 170 165 168 166 170 176 177 177 194 190
150 150 147 144 151 154 162 170 166 158 160 160 165 171 171 168 174 170 177 198 206 189
160 156 160 154 158 154 149 155 159 166 167 170 175 171 170 166 166 178 189 205 190 199
146 149 154 141 147 153 162 161 171 163 158 166 163 170 174 168 172 184 200 186 185 203
161 157 152 148 158 144 147 166 168 164 167 161 176 174 173 172 182 196 199 197 202 193
162 155 159 164 163 154 143 157 175 164 165 169 180 183 178 172 182 202 216 210 199 198
158 168 174 169 166 142 144 150 149 164 179 176 181 194 189 180 177 206 215 196 195 212
171 173 181 157 124 136 135 138 156 163 171 186 187 201 197 190 182 203 185 183 213 214